Regional Weather Roundup
Issued by NWS

Home | Current Version | Previous Version | Text Only | Print | Product List | Glossary On
Versions: 1 2 3 4 5 6 7 8 9 10 11 12 13 14 15 16 17 18 19 20 21 22 23 24 25 26 27 28
000
ASPQ40 PGUM 281812
RWRPQ
WEATHER ROUNDUP FOR THE MARIANAS AND MICRONESIA
NATIONAL WEATHER SERVICE TIYAN GU
400 AM CHST THU JUN 29 2017

GUZ001>004-281900-
MARIANA ISLANDS-

CITY           SKY/WX    TMP DP  RH WIND       PRES   REMARKS
GUAM AIRPORT   LGT RAIN  79  79 100 E10       29.85F
ANDERSEN AFB   MOCLDY    79  75  89 E16       29.86F
ROTA AIRPORT   NOT AVBL
TINIAN AP      NOT AVBL
SAIPAN AP      PTCLDY    79  75  89 NE8       29.88R

$$

PMZ161-281900-
REPUBLIC OF PALAU-

CITY           SKY/WX    TMP DP  RH WIND       PRES   REMARKS
KOROR AP       MOCLDY    75  73  94 N5        29.79F
KOROR WSO      CLOUDY    79  77  94 CALM      29.80F

$$

PMZ171>174-281900-
FEDERATED STATES OF MICRONESIA-

CITY           SKY/WX    TMP DP  RH WIND       PRES   REMARKS
YAP AIRPORT    CLOUDY    79  77  94 VRB6      29.78R
CHUUK AP       LGT RAIN  79  77  94 NE8       29.81S
POHNPEI AP     NOT AVBL
POHNPEI WSO    CLOUDY    75  73  94 CALM      29.85R
KOSRAE AP      NOT AVBL

$$

PMZ181-281900-
REPUBLIC OF THE MARSHALL ISLANDS-

CITY           SKY/WX    TMP DP  RH WIND       PRES   REMARKS
KWAJALEIN AP   MOCLDY    79  75  89 SW10      29.83S
MAJURO AP      NOT AVBL
MAJURO WSO     MOCLDY    79  73  83 CALM      29.80S

$$





USA.gov is the U.S. government's official web portal to all federal, state and local government web resources and services.